Wind_Speed
110 110 109 108 108 108 108 107 107 107 108 108 108 108 108 108 107 107 106 105 105 104 104 103 103 102 102 102 102 103 103 103 104 103 103 103 103 102 102 102 102 101 101 101 102 102 103 102 102 101 101 101 101 101 102 102 102 102 102 103 103 103 103 103 102 102 102 102 101 100 99 99 97 96 94 92 90 88 86 83 80 77 75 72 70 68
108 108 107 106 106 106 106 105 105 105 105 106 106 106 106 106 106 105 105 105 104 104 103 102 101 101 101 101 101 102 102 103 103 103 103 103 102 102 102 102 101 101 101 101 102 102 102 102 102 101 101 101 101 101 101 102 102 102 102 102 102 102 102 102 102 102 101 101 100 100 99 98 96 95 93 91 89 87 84 82 79 76 74 71 69 68
105 105 105 105 104 104 103 103 103 103 103 104 104 104 104 104 104 104 104 104 103 103 102 102 101 100 100 100 100 100 101 101 102 102 102 102 102 102 102 101 101 101 101 101 101 102 102 102 102 101 101 100 100 101 101 101 102 102 101 102 101 101 101 101 101 101 100 100 99 99 98 96 95 93 92 90 88 85 83 81 78 75 72 70 69 67
102 103 103 102 102 101 101 101 101 101 101 102 102 102 102 102 102 102 102 102 102 102 102 101 100 100 99 99 99 99 99 100 101 101 101 101 101 101 101 101 101 101 100 100 100 101 101 101 101 101 101 100 100 100 101 101 101 101 101 100 100 100 99 99 99 99 99 99 98 97 96 95 93 92 90 88 86 84 82 79 77 74 71 69 68 66
100 100 100 100 100 100 99 99 99 99 100 100 100 100 100 100 101 101 101 101 101 101 101 100 100 99 99 98 98 98 98 99 99 100 100 100 100 100 100 100 100 100 100 100 99 99 100 100 100 100 100 100 100 100 100 100 100 100 99 99 98 98 98 98 98 98 98 97 97 96 95 93 92 90 89 87 85 83 81 78 76 73 71 69 67 66
98 98 98 98 98 98 97 97 97 98 98 98 99 99 99 99 99 99 99 99 99 100 100 99 99 99 98 98 97 97 97 98 98 98 99 99 99 99 99 99 99 99 99 99 98 98 98 99 99 100 100 100 100 100 100 99 99 98 98 97 97 96 96 96 96 96 96 96 95 95 93 92 91 89 87 85 84 81 79 77 75 72 70 68 66 65
96 96 96 96 96 96 95 95 96 96 97 97 97 97 97 97 97 97 98 98 98 98 98 98 98 98 97 97 96 96 96 96 97 97 98 98 98 98 98 98 98 98 98 97 97 97 97 98 98 99 100 100 99 99 99 98 97 97 96 95 95 95 95 95 95 94 94 94 93 93 92 91 89 88 86 84 82 80 78 76 74 71 69 67 65 64
95 94 94 94 94 94 94 94 94 94 95 96 96 96 96 96 96 96 96 96 96 97 97 96 96 96 96 96 96 95 95 95 96 96 96 97 97 97 97 96 96 96 96 96 96 96 96 97 97 98 99 99 98 98 98 97 96 95 94 94 93 93 93 93 93 92 92 92 92 91 90 89 88 86 84 83 81 79 77 75 73 70 68 66 64 63
94 93 93 92 92 92 92 92 92 93 93 94 94 94 94 94 94 95 95 95 95 95 95 95 95 94 94 94 94 94 94 94 94 94 95 95 95 95 95 95 95 94 95 95 95 95 96 96 97 97 97 97 97 97 96 95 94 93 93 92 92 91 92 91 91 91 91 90 90 89 89 87 86 85 83 81 80 78 76 74 72 69 67 65 63 62
93 92 91 91 91 91 90 90 90 91 92 93 93 93 93 93 93 93 93 93 93 93 93 93 93 93 93 93 93 93 93 93 93 93 93 93 94 94 93 93 93 93 93 93 93 94 94 95 96 96 96 96 95 95 94 93 92 92 91 91 90 90 90 90 90 89 89 89 88 87 87 85 84 83 82 80 78 77 75 74 71 68 66 64 63 62
92 91 90 90 89 89 89 89 89 89 90 91 92 92 92 92 92 92 92 92 92 92 92 92 91 91 91 91 91 91 91 92 92 92 92 92 92 92 92 92 92 92 92 92 92 92 93 94 95 95 95 94 93 93 92 91 91 90 89 89 89 88 88 88 88 88 88 87 87 86 85 83 82 81 80 79 77 76 74 73 70 68 65 63 62 61
91 90 89 89 88 87 87 87 87 88 88 89 90 90 91 91 91 91 91 91 91 90 90 90 90 89 89 89 89 89 90 90 91 91 91 90 90 90 90 90 90 90 90 90 90 91 92 93 94 94 94 92 91 90 90 89 89 88 88 87 87 87 86 86 87 87 87 86 85 84 83 81 80 79 78 77 76 75 73 72 70 68 65 63 62 61
89 89 88 87 86 86 86 86 86 86 86 87 88 89 89 89 89 89 90 90 89 89 89 88 88 88 88 88 88 88 89 89 90 90 90 89 89 89 89 89 89 89 88 88 89 89 91 92 93 94 92 91 89 88 88 87 86 86 86 85 85 85 85 85 85 86 86 85 84 82 81 79 78 77 77 76 75 74 72 71 69 67 65 63 62 61
87 86 86 85 85 84 84 84 84 84 85 85 86 87 87 88 88 88 88 88 88 88 87 87 87 87 86 86 86 87 87 88 88 89 88 88 88 88 88 88 87 87 87 87 87 88 89 91 92 93 92 89 87 86 85 85 84 84 84 84 84 83 83 84 84 84 84 83 82 80 79 77 76 76 75 74 73 72 71 70 69 67 65 63 62 61
85 84 84 83 82 82 82 82 82 83 83 83 84 85 85 86 86 87 87 87 87 87 86 86 85 85 85 85 85 86 86 87 87 87 87 87 87 87 87 86 86 86 85 85 85 86 87 89 91 92 91 89 86 84 83 83 82 82 82 82 82 82 82 83 83 83 82 81 80 78 77 76 75 74 73 72 71 70 70 69 67 66 64 63 62 62
82 81 81 80 80 80 80 80 80 81 81 81 82 83 83 84 84 85 85 85 85 85 85 85 84 84 84 84 84 85 86 86 86 86 86 86 85 86 86 86 85 85 84 84 84 84 86 87 89 91 91 88 85 83 81 80 80 80 80 80 80 81 81 81 81 81 80 79 78 76 75 74 73 72 71 71 70 69 68 67 66 65 64 63 62 62
79 78 78 78 77 77 78 78 78 79 79 80 80 81 82 82 82 83 83 84 84 84 84 83 83 83 82 82 83 84 84 85 85 85 85 84 84 84 85 85 84 83 83 82 82 83 84 85 87 89 89 88 85 82 79 78 78 79 79 79 79 79 80 80 79 79 78 77 76 75 73 72 71 70 70 69 68 68 67 66 65 64 63 63 62 62
76 75 75 75 75 75 75 76 76 77 78 78 78 79 79 80 80 81 81 82 82 82 82 82 81 81 80 81 81 82 83 83 84 83 83 83 83 83 84 84 83 82 81 81 81 81 82 83 85 87 88 87 85 81 77 76 76 77 77 78 78 78 78 78 77 77 76 75 74 73 72 71 70 69 68 67 67 66 65 64 64 63 63 63 62 62
73 73 73 73 73 73 73 74 74 75 76 76 77 77 77 78 78 79 79 79 80 80 80 80 79 79 79 79 79 80 81 82 82 82 82 82 82 82 82 82 82 81 80 79 79 80 80 82 83 85 86 86 84 80 76 74 75 75 76 76 76 76 76 76 75 75 74 73 72 71 70 69 68 67 66 66 65 64 63 63 63 63 63 62 62 62
70 70 70 71 71 71 71 72 73 73 74 75 75 75 75 75 76 76 77 77 78 78 78 78 77 77 76 76 77 78 79 79 80 80 80 80 80 80 81 80 80 79 79 78 78 78 79 80 82 83 84 84 82 78 74 72 73 74 75 75 74 74 74 74 73 73 72 71 71 70 69 67 67 66 65 64 63 62 62 62 62 62 62 62 62 62
67 67 68 69 70 70 70 70 71 72 72 73 73 73 73 73 74 74 75 75 75 75 75 75 75 74 74 74 75 75 76 77 78 78 78 78 78 78 78 78 78 77 77 76 76 77 77 79 80 82 82 82 80 76 72 70 71 73 73 73 73 72 72 72 71 71 70 70 69 68 67 66 65 63 62 62 61 61 61 61 62 62 62 62 62 62
65 65 66 67 68 68 69 69 69 70 70 71 71 71 71 71 71 72 72 72 72 73 72 72 72 72 72 72 72 73 74 75 75 76 76 75 76 76 76 76 75 75 75 75 75 75 76 77 79 80 80 80 77 73 69 68 70 71 72 71 71 71 70 70 70 69 68 68 67 66 65 64 63 61 60 60 59 60 60 61 61 62 62 62 61 62
64 64 64 65 66 66 67 67 67 68 68 69 69 69 69 69 69 69 69 70 70 70 70 70 69 69 69 69 70 70 71 72 73 73 73 73 73 73 73 73 73 73 73 73 73 73 74 76 77 78 78 77 73 70 67 67 68 70 70 70 69 69 69 68 68 67 66 66 65 64 63 62 61 59 59 58 58 59 60 61 61 61 61 61 61 62
63 63 63 63 63 64 64 65 65 66 66 67 67 67 67 67 67 67 67 67 67 67 67 67 67 67 67 67 67 68 69 69 70 71 71 70 70 70 70 70 70 70 71 70 71 71 73 74 75 76 75 73 70 66 64 65 67 68 68 68 67 67 67 66 66 65 65 64 63 62 61 60 59 58 57 57 58 59 60 60 61 61 61 61 61 62
63 62 62 61 61 62 62 62 63 63 64 64 65 65 65 65 64 64 64 64 65 65 65 65 64 64 64 64 65 65 66 67 68 68 68 67 67 67 67 67 68 68 68 68 69 70 71 72 73 72 71 68 65 63 63 64 66 66 66 66 66 65 65 64 64 63 63 62 61 60 59 58 57 56 56 57 58 59 59 60 60 60 61 61 62 62
63 62 61 60 60 60 60 60 60 61 61 62 62 62 62 62 62 62 62 62 62 62 62 62 61 61 61 61 62 63 64 64 65 65 65 64 64 64 64 65 65 66 66 66 67 68 69 69 69 68 66 64 62 61 61 63 64 64 64 64 64 63 63 62 62 61 61 60 59 58 57 56 56 56 56 57 58 58 59 60 60 60 61 61 62 63
62 61 60 59 59 58 58 58 58 59 59 59 59 60 60 59 59 59 60 60 60 60 60 59 58 58 58 59 60 60 61 62 62 62 62 61 61 61 61 62 63 63 64 64 65 66 66 66 65 63 61 60 59 59 60 62 62 62 62 62 62 62 61 61 60 59 59 58 57 56 55 55 55 55 56 57 58 58 59 59 60 61 61 62 63 63
61 60 59 58 57 57 57 56 57 57 57 57 57 57 57 57 57 57 57 58 58 58 57 56 56 56 56 56 57 58 58 59 59 60 59 59 58 58 59 60 61 61 62 62 62 62 62 61 60 59 58 57 57 58 59 60 60 60 60 60 60 60 59 59 58 57 57 56 55 54 54 54 54 55 56 57 57 58 59 60 61 61 62 63 63 64
60 59 58 57 56 55 55 55 55 55 55 55 55 55 55 54 54 54 55 55 55 55 54 54 53 53 53 53 54 55 56 56 57 57 56 56 55 56 56 57 58 59 59 59 59 58 58 57 56 55 55 56 56 57 58 58 59 59 59 59 58 58 58 57 56 56 55 54 53 53 53 53 54 55 56 57 58 58 59 60 61 62 63 63 64 64
58 57 56 55 54 54 53 53 53 53 53 53 53 53 53 52 52 52 52 52 52 52 52 51 51 50 50 51 51 52 53 54 54 54 53 53 53 53 54 55 55 55 55 55 54 54 54 54 53 53 54 55 56 56 57 57 57 57 57 57 57 56 56 55 54 54 53 52 52 52 52 53 53 54 56 57 58 59 60 61 62 63 63 64 64 64
57 56 55 54 53 52 52 51 51 52 52 52 51 51 50 50 50 49 49 49 49 49 49 49 48 48 48 48 49 50 51 51 52 51 50 50 51 51 51 52 52 52 51 51 51 51 51 51 52 53 53 54 55 55 55 55 55 56 55 55 55 54 54 53 52 52 52 51 51 51 52 52 53 54 56 57 58 59 60 62 62 63 63 64 64 64
56 54 53 52 51 51 50 50 50 50 50 50 50 49 49 48 47 47 47 47 47 47 46 46 46 46 46 46 46 47 48 49 49 48 48 48 48 48 48 48 48 48 48 48 48 48 49 50 51 52 53 53 53 54 54 54 54 54 53 53 53 52 52 51 51 51 50 51 51 51 52 52 53 54 56 57 58 60 61 62 62 62 63 63 63 64
54 53 52 51 50 49 49 48 48 48 48 48 47 47 46 46 45 45 45 44 44 44 44 44 44 44 44 44 44 45 46 46 46 46 46 46 46 46 45 45 45 45 46 46 47 48 49 50 51 51 52 52 52 52 52 52 52 52 51 51 51 50 50 49 49 49 50 50 50 51 52 52 53 55 56 57 58 59 60 61 61 61 62 63 63 65
52 51 50 49 48 48 48 47 47 46 46 45 45 45 44 44 44 43 43 43 42 42 42 42 41 41 41 41 42 42 43 43 44 43 43 43 43 43 43 43 43 44 44 45 46 47 48 49 49 50 50 51 51 51 51 50 50 50 49 49 48 48 48 48 48 48 49 49 50 51 51 53 54 55 56 57 58 58 59 59 60 61 61 63 64 65
50 49 49 48 47 47 46 45 45 44 43 43 43 42 42 42 42 42 42 41 41 40 40 40 40 39 39 39 39 40 40 41 41 41 41 41 41 41 41 41 42 43 44 45 46 46 47 47 48 48 49 49 49 49 49 48 48 47 47 47 46 46 46 46 47 47 48 49 50 51 52 53 53 55 55 56 56 57 58 58 59 60 62 63 64 65
48 48 47 47 46 45 45 44 43 42 41 41 40 41 41 41 41 40 40 40 39 39 38 38 38 37 37 37 38 38 39 39 39 39 39 39 39 39 39 40 41 42 43 44 44 45 45 46 46 46 47 47 47 47 47 46 45 45 45 45 45 45 45 45 46 47 48 49 50 51 52 53 53 54 54 55 55 56 57 58 59 61 62 64 64 65
46 46 46 45 45 44 43 41 40 39 39 39 39 39 39 39 39 39 39 38 38 37 36 36 36 36 36 36 36 36 37 37 38 38 38 38 38 38 39 40 40 41 42 42 43 43 44 44 44 44 44 45 44 44 44 44 43 43 43 43 44 44 44 45 46 47 48 49 50 51 52 52 53 53 54 54 55 56 57 58 60 61 62 63 64 64
45 45 44 44 43 41 40 39 38 38 37 37 37 37 38 38 38 38 37 37 36 35 35 34 34 34 34 34 35 35 36 36 36 36 36 37 37 37 38 39 40 40 41 41 41 42 42 42 42 42 42 42 42 42 42 42 42 42 42 43 43 43 44 45 46 47 48 49 50 51 51 52 53 53 54 54 55 56 58 59 60 61 62 63 63 64
44 44 43 42 40 39 38 37 36 36 36 36 36 36 36 36 36 36 36 35 34 34 33 33 33 33 33 33 34 34 35 35 35 35 35 36 36 37 37 38 38 39 39 39 39 40 40 39 39 39 39 39 40 40 40 40 41 41 42 42 43 44 44 45 46 47 48 49 49 50 51 51 52 53 54 55 56 57 58 60 61 61 62 62 63 63
42 42 41 39 38 37 36 35 35 35 35 35 35 35 35 35 35 34 34 34 33 33 32 32 32 32 32 33 33 33 34 34 34 34 35 35 36 36 36 36 37 37 37 37 37 37 37 37 37 37 38 38 38 38 39 40 40 41 41 42 43 44 45 45 46 46 47 48 49 50 51 51 52 53 54 55 56 57 59 60 61 61 61 62 62 63
41 40 38 37 36 35 34 34 34 34 34 34 34 34 34 33 33 33 32 32 32 31 31 31 31 31 32 32 32 33 33 33 33 34 34 35 35 35 35 35 35 35 35 35 36 36 36 36 36 36 37 37 37 38 38 39 40 40 41 42 43 44 44 44 45 46 46 47 48 49 50 51 52 53 54 55 57 58 59 59 60 61 61 62 62 63
38 38 36 35 34 34 33 33 33 33 33 32 32 32 32 32 31 31 31 31 30 30 30 30 30 31 31 31 32 32 32 33 33 33 34 34 34 34 34 33 33 34 34 34 34 34 35 35 35 35 36 36 37 37 38 39 39 40 40 41 42 42 43 44 44 45 46 47 48 49 50 51 52 53 54 56 57 58 58 59 60 60 61 62 63 65
36 35 34 34 33 32 32 32 32 31 31 31 31 31 30 30 30 30 30 30 30 30 30 30 30 30 30 31 31 32 32 32 32 33 33 33 33 32 32 32 32 32 32 33 33 33 33 34 34 35 35 35 36 36 37 37 38 38 39 40 40 41 42 43 44 44 45 46 47 49 50 51 52 53 55 56 57 58 58 59 60 61 62 64 65 66
34 34 33 32 32 32 31 31 31 30 30 30 29 29 29 29 29 29 29 29 29 29 29 29 29 29 30 30 31 31 31 31 32 32 32 31 31 31 31 31 31 31 31 31 32 32 32 33 33 33 34 34 34 35 35 36 37 37 38 38 39 40 42 43 43 44 45 47 48 49 50 52 53 54 55 56 57 58 59 60 61 63 64 65 66 68
33 32 32 31 31 30 30 30 29 29 29 28 28 28 28 27 27 28 28 28 28 28 28 29 29 29 29 30 30 30 30 30 31 30 30 30 29 29 29 29 29 29 30 30 30 31 31 31 32 32 32 32 33 34 34 35 36 36 37 38 39 40 41 42 43 44 46 47 48 50 51 52 53 54 56 57 58 59 60 62 63 64 65 66 68 69
31 31 30 30 30 29 29 28 28 28 27 27 27 26 26 26 26 27 27 27 27 28 28 28 28 28 28 28 29 29 29 29 29 29 28 28 28 27 27 27 28 28 28 29 29 29 30 30 30 31 31 32 32 33 34 35 35 36 37 38 39 40 41 42 44 45 46 48 49 50 51 53 54 56 57 59 60 61 62 63 64 65 67 68 69 71
30 30 29 29 28 28 27 27 27 26 26 26 26 25 25 25 26 26 26 26 27 27 27 27 27 27 27 27 27 27 27 27 27 26 26 26 26 26 26 26 26 27 27 27 28 28 28 29 29 30 31 32 32 33 34 35 35 36 37 38 39 40 42 43 44 46 47 49 50 51 53 54 56 57 59 60 61 63 64 64 65 67 68 69 70 72
29 28 28 28 27 27 26 26 25 25 25 25 24 25 25 25 25 25 25 26 26 26 26 26 26 26 26 26 25 25 25 25 24 24 24 24 24 24 25 25 25 26 26 26 27 27 28 29 29 30 31 32 32 33 34 35 36 36 38 39 40 41 43 44 46 47 48 50 51 53 54 56 57 59 60 62 63 64 65 66 67 67 68 70 71 72
28 27 27 26 26 25 25 25 24 24 24 23 23 23 24 24 24 24 24 24 24 24 24 24 24 24 24 24 24 23 23 22 22 22 22 22 23 23 24 24 25 25 26 26 27 27 28 29 29 30 31 32 33 34 35 35 36 37 38 40 41 43 44 46 47 49 50 52 53 54 56 57 59 60 62 63 65 66 67 67 67 68 69 70 71 73
26 26 25 25 25 24 24 23 23 22 22 22 22 22 22 23 23 23 23 23 23 23 22 22 22 22 22 22 22 21 21 21 21 21 22 22 22 22 23 24 24 25 26 26 27 28 28 29 30 31 32 32 33 35 36 37 38 39 40 42 43 45 47 48 50 51 52 53 55 56 57 59 60 61 62 64 65 66 67 68 68 69 70 71 72 73
25 25 24 24 23 22 22 21 21 21 20 20 21 21 21 21 21 21 21 21 21 21 21 21 21 21 21 21 20 20 20 20 20 21 21 21 22 22 23 23 24 25 26 27 27 28 29 30 31 32 32 33 34 35 37 39 40 41 43 45 46 47 49 50 52 53 54 55 56 58 59 60 61 62 63 65 66 66 67 68 69 70 70 70 71 72
Wind_Direction
283 282 282 281 281 280 280 279 279 279 279 279 278 278 278 278 278 277 277 277 276 276 276 275 275 275 275 275 275 275 275 275 275 275 275 275 275 275 275 275 275 275 276 276 276 276 276 276 276 276 276 277 277 277 278 278 278 279 279 280 281 281 282 282 283 284 284 285 286 286 287 287 288 289 289 289 290 290 290 290 290 289 288 287 286 284
283 282 281 281 280 280 279 279 279 278 278 278 278 278 277 277 277 277 277 276 276 276 275 275 275 274 274 274 274 274 274 274 274 274 274 274 274 274 274 274 274 275 275 275 275 275 275 275 276 276 276 276 276 276 277 277 278 278 278 279 280 280 281 282 282 283 284 284 285 286 286 287 287 288 288 289 289 289 289 289 289 288 287 286 285 283
282 282 281 280 280 279 279 279 278 278 278 277 277 277 277 277 277 276 276 276 276 276 275 275 274 274 274 273 273 273 273 273 273 273 273 273 273 273 273 274 274 274 274 274 274 274 275 275 275 275 275 275 275 276 276 276 277 277 278 278 279 280 280 281 282 282 283 284 284 285 286 286 287 287 287 288 288 288 288 288 288 287 286 285 284 282
281 281 280 280 279 279 279 278 278 277 277 277 277 276 276 276 276 276 276 276 275 275 275 275 274 274 273 273 273 273 273 273 273 273 273 273 273 273 273 273 273 273 273 273 273 274 274 274 275 275 275 275 275 275 275 275 276 276 277 277 278 279 280 281 281 282 282 283 284 284 285 285 286 286 286 287 287 287 287 287 287 286 285 284 282 281
281 280 280 279 279 279 278 278 278 277 277 276 276 276 276 275 275 275 275 275 275 275 274 274 274 273 273 273 272 272 272 272 272 272 272 272 272 272 272 272 272 272 272 272 273 273 273 274 274 274 274 274 274 274 274 275 275 276 276 277 278 279 279 280 280 281 282 282 283 283 284 284 285 285 286 286 286 286 286 286 286 285 284 283 281 280
280 280 279 279 279 278 278 278 277 277 277 276 276 275 275 275 275 275 274 274 274 274 274 274 273 273 273 272 272 272 272 272 272 272 271 271 271 271 271 271 271 272 272 272 272 272 273 273 273 273 274 274 274 274 274 274 275 275 276 277 277 278 279 279 280 280 281 281 282 282 283 283 284 284 285 285 285 285 285 285 284 284 283 282 280 279
280 280 279 279 278 278 278 277 277 277 276 276 276 275 275 274 274 274 274 273 273 273 273 273 273 273 272 272 272 272 271 271 271 271 271 271 271 271 271 271 271 271 271 271 271 272 272 272 272 273 273 273 273 274 274 274 275 275 276 277 277 277 278 278 279 280 280 281 281 282 282 283 283 284 284 284 284 284 284 284 283 283 282 280 279 277
280 280 279 279 278 278 277 277 277 276 276 276 275 275 274 274 274 273 273 273 272 272 272 272 272 272 272 272 271 271 271 271 270 270 270 270 270 270 270 270 270 270 271 271 271 271 271 271 272 272 272 273 273 273 274 274 275 275 276 276 277 277 277 278 278 279 279 280 280 281 281 282 283 283 283 283 283 283 283 283 282 282 281 279 278 276
281 280 279 279 278 278 277 277 276 276 276 275 275 274 274 273 273 273 272 272 272 272 272 272 271 271 271 271 271 271 270 270 270 270 269 269 269 269 270 270 270 270 270 270 270 271 271 271 271 271 272 272 273 273 274 274 275 275 276 276 276 277 277 277 278 278 279 279 279 280 281 281 282 282 283 283 282 282 282 282 282 281 280 278 277 275
281 280 280 279 278 278 277 277 276 276 275 275 274 274 273 273 272 272 272 271 271 271 271 271 271 271 270 270 270 270 270 269 269 269 269 269 269 269 269 269 269 269 269 269 270 270 270 270 270 271 271 272 272 273 274 274 275 275 276 276 276 276 277 277 277 278 278 278 279 279 280 281 281 282 282 282 282 281 281 281 281 280 279 277 276 274
281 281 280 279 278 278 277 277 276 275 275 275 274 273 273 272 272 272 271 271 270 270 270 270 270 270 269 269 269 269 269 269 268 268 268 268 268 268 268 268 268 268 268 269 269 269 269 270 270 270 270 271 271 272 273 274 274 275 275 275 276 276 276 277 277 277 277 277 278 279 280 280 281 281 281 281 281 281 280 280 280 279 278 277 275 274
282 281 280 279 279 278 277 277 276 275 275 274 274 273 273 272 272 271 271 270 270 269 269 269 269 269 269 268 268 268 268 268 268 267 267 267 267 267 267 267 267 267 268 268 268 268 269 269 269 269 270 270 271 271 272 273 273 274 274 275 275 275 276 276 276 276 276 277 278 278 279 279 280 280 280 280 280 280 280 280 280 279 278 276 275 274
281 281 280 280 279 278 278 277 276 275 275 274 273 273 272 272 271 271 270 270 269 269 268 268 268 268 268 268 267 267 267 267 267 267 267 267 267 266 266 266 266 267 267 267 267 268 268 268 269 269 269 269 270 271 271 272 273 273 273 274 274 275 275 275 275 275 276 277 277 278 278 278 279 278 278 279 279 279 279 279 279 278 278 276 275 274
281 281 280 280 279 279 278 277 276 275 275 274 273 273 272 271 271 270 270 269 269 268 268 267 267 267 267 267 267 266 266 266 266 266 266 266 266 266 266 266 266 266 266 266 266 267 267 268 268 269 269 269 269 270 270 271 272 272 273 273 273 273 274 274 274 274 275 276 277 277 277 277 277 277 277 277 278 278 278 278 278 278 277 276 275 274
281 281 281 280 279 279 278 277 276 275 274 274 273 272 272 271 271 270 270 269 268 268 267 267 267 266 266 266 266 266 266 266 265 265 266 266 266 266 266 265 265 265 265 265 266 266 267 267 268 269 269 269 269 269 269 270 271 271 272 272 272 272 273 273 273 274 275 275 276 276 276 276 276 276 276 276 277 277 277 277 277 277 277 276 275 274
281 281 281 280 279 279 278 277 276 275 274 274 273 272 272 271 270 270 269 269 268 268 268 267 267 266 266 266 266 266 266 265 265 265 265 265 265 265 265 265 265 265 265 265 265 265 266 267 267 268 269 269 269 269 269 269 270 270 271 271 271 271 271 272 272 273 274 274 275 275 275 275 275 275 275 275 275 276 276 276 276 276 276 275 275 274
282 281 281 280 279 279 278 277 276 275 274 273 273 272 271 271 270 270 269 269 269 268 268 267 267 267 266 266 265 265 265 265 265 265 265 265 265 265 265 265 264 264 264 264 264 265 265 266 267 268 268 269 269 269 269 269 269 269 270 270 270 270 271 271 272 272 273 273 274 274 274 274 274 274 274 274 274 274 275 275 275 275 275 274 274 274
282 281 281 280 279 278 278 277 276 275 274 273 273 272 271 271 271 270 270 269 269 269 268 268 267 267 267 266 266 266 265 265 265 265 265 264 264 264 264 264 264 264 264 264 264 264 264 265 266 267 268 268 269 269 269 269 269 269 269 269 269 269 270 270 271 271 272 272 272 272 272 273 273 273 273 273 273 273 274 273 273 273 273 273 273 274
282 282 281 280 279 278 277 276 276 275 274 273 273 272 272 271 271 271 270 270 270 269 269 269 268 268 267 266 266 266 266 265 265 265 264 264 264 264 264 264 264 264 264 263 263 264 264 264 265 266 267 268 268 268 269 269 268 268 268 268 268 269 269 269 270 270 270 271 271 271 271 271 272 272 272 272 272 272 272 272 272 272 272 272 272 273
282 282 281 280 279 278 277 276 275 275 274 273 273 273 272 272 272 271 271 271 270 270 270 269 269 269 268 267 267 266 266 265 265 265 264 264 264 264 264 264 264 264 264 263 263 263 263 264 264 265 266 267 268 268 268 268 268 268 268 268 268 268 268 268 269 269 269 270 270 270 270 270 271 271 271 271 271 271 271 271 271 271 271 272 272 273
282 281 280 279 278 277 277 276 275 275 274 274 274 273 273 273 272 272 272 271 271 271 270 270 270 269 269 268 267 266 266 265 265 265 264 264 264 264 264 264 264 264 263 263 263 263 263 263 264 264 265 266 267 268 268 268 267 267 267 267 267 267 267 267 268 268 268 269 269 269 269 270 270 270 270 270 270 270 270 270 270 270 271 271 272 273
281 280 279 278 277 277 276 276 275 275 275 274 274 274 273 273 273 272 272 272 272 271 271 271 270 270 269 268 267 267 266 266 265 265 265 264 264 264 264 264 264 263 263 263 263 262 262 263 263 264 265 266 267 268 268 267 266 266 266 266 266 266 266 266 266 267 267 268 268 268 268 269 269 269 270 270 269 269 269 269 269 270 270 271 272 273
280 279 278 277 277 276 276 276 276 276 275 275 275 274 274 273 273 273 273 272 272 272 272 271 271 270 269 268 268 267 266 266 265 265 265 264 264 264 264 264 263 263 263 262 262 262 262 262 263 263 264 266 267 268 267 266 265 264 265 265 265 265 265 265 266 266 266 267 267 267 268 268 268 268 268 268 268 268 268 268 269 270 270 271 272 273
280 279 277 277 276 276 276 276 276 276 275 275 275 275 274 274 274 273 273 273 272 272 272 271 271 270 269 269 268 267 266 266 266 265 265 264 264 264 263 263 263 263 262 262 262 261 261 262 262 263 264 266 267 267 266 264 263 263 264 264 264 264 264 264 265 265 265 266 266 266 267 267 268 268 267 267 267 267 267 268 268 269 270 271 272 273
280 279 278 277 277 276 276 276 276 275 275 275 275 275 275 275 274 274 274 273 272 272 272 271 270 270 269 268 268 267 266 266 265 265 265 264 264 263 263 263 262 262 262 262 261 261 261 261 262 263 265 266 266 266 264 263 262 262 263 263 263 263 263 263 264 264 264 265 265 266 266 267 267 267 266 266 266 267 267 268 269 270 270 271 272 273
281 280 279 278 277 277 276 276 276 275 275 275 275 275 275 275 275 274 274 273 272 272 271 271 270 270 269 268 268 267 266 266 265 265 265 264 264 263 263 262 262 261 261 261 260 260 261 261 263 264 265 265 265 263 262 261 261 261 261 261 262 262 262 262 263 263 263 264 265 265 266 266 266 266 266 266 266 266 267 268 269 270 270 271 272 272
281 281 280 279 279 278 277 276 276 276 275 275 275 275 275 274 274 274 273 273 272 272 271 271 271 270 269 268 267 267 266 266 265 265 264 264 263 263 262 261 261 261 260 260 260 260 261 262 263 264 264 264 262 261 260 260 260 260 260 260 261 261 261 261 262 262 263 263 264 264 265 265 265 265 265 265 266 266 267 268 269 270 270 271 271 272
281 281 281 280 279 279 278 277 277 276 276 275 275 275 274 274 274 273 273 273 272 272 271 271 270 270 269 268 267 266 266 265 265 264 264 263 262 262 261 260 260 260 260 260 260 261 261 262 263 263 262 261 260 258 258 258 258 259 259 259 259 260 260 260 261 261 262 262 263 263 263 263 264 264 264 265 266 266 267 268 268 269 270 270 271 272
281 281 281 280 280 279 279 278 278 277 276 276 275 274 274 274 273 273 273 272 272 272 272 271 270 269 268 267 267 266 265 264 264 264 263 262 261 261 260 260 259 259 259 260 260 261 261 261 261 260 259 258 257 257 257 257 257 258 258 258 258 259 259 259 260 260 261 261 261 262 262 262 262 263 263 264 265 266 267 267 268 269 269 270 271 272
281 281 281 281 280 280 279 279 278 277 276 276 275 275 274 274 273 273 273 272 272 272 271 271 270 269 267 267 266 265 264 264 263 263 262 261 261 260 259 259 259 259 259 259 259 260 259 259 258 257 256 256 255 255 255 256 256 257 257 257 257 258 258 259 259 259 260 260 260 260 261 261 261 262 262 263 264 265 266 267 267 268 269 271 272 274
281 281 281 281 281 280 280 279 278 277 277 276 276 275 275 275 274 273 273 272 272 271 271 270 269 268 267 266 265 264 263 263 263 262 262 261 260 259 259 258 258 258 258 258 258 258 257 256 255 254 254 254 254 254 255 255 255 256 256 256 257 257 257 258 258 259 259 259 259 259 260 260 260 261 262 262 263 264 265 266 267 269 270 272 273 275
282 282 282 281 281 280 279 279 278 277 277 277 276 276 276 275 274 274 273 272 271 270 270 269 268 267 266 265 264 263 263 262 262 262 261 260 259 258 258 258 257 257 257 256 255 254 254 253 253 253 253 253 253 254 254 254 255 255 255 256 256 256 257 257 258 258 258 259 259 259 259 260 260 260 261 262 263 264 265 266 268 270 271 273 274 276
282 282 282 281 281 280 279 279 278 278 277 277 277 277 276 276 275 273 272 271 271 270 269 268 267 266 265 264 263 262 262 262 261 261 260 259 258 258 257 256 256 255 254 254 252 252 251 251 251 252 252 252 253 253 253 254 254 255 255 256 256 257 257 257 258 258 259 259 259 259 260 260 260 261 261 262 263 264 266 267 269 271 272 273 274 275
282 282 282 281 281 280 279 279 278 278 278 278 277 277 276 275 274 273 272 271 270 269 268 267 266 265 265 264 263 262 261 261 260 260 259 258 257 257 256 255 254 253 252 251 251 251 250 251 251 251 252 253 253 253 253 254 254 255 255 256 256 257 257 258 258 259 259 260 260 260 261 261 261 262 262 263 264 266 267 269 270 271 272 273 274 274
282 282 281 281 280 280 279 279 279 279 278 278 277 277 276 275 274 272 271 271 270 269 268 267 266 265 264 263 262 261 260 260 259 259 258 257 256 255 255 253 252 252 251 251 250 250 251 251 251 252 252 252 253 253 254 254 255 255 256 256 257 257 258 258 259 259 260 260 261 261 261 262 262 263 264 265 266 267 269 270 271 271 272 273 273 274
281 281 281 280 280 280 280 280 280 279 279 278 277 276 275 274 273 272 271 270 269 269 268 267 266 265 264 262 261 260 259 259 258 257 257 256 255 254 253 252 251 251 250 250 250 251 251 252 252 252 253 253 253 254 254 254 255 255 256 256 257 257 258 258 259 259 260 260 260 261 262 263 263 264 265 266 268 268 269 270 271 271 272 273 274 276
281 280 280 280 280 281 281 281 281 280 279 277 276 275 273 272 272 271 271 270 269 269 268 267 266 265 263 262 261 259 258 257 257 256 256 255 254 253 252 251 251 250 250 250 251 251 252 252 252 253 253 253 254 254 254 255 255 255 255 256 256 257 257 257 258 258 259 259 260 261 262 263 264 265 267 268 268 269 270 270 271 272 273 274 276 278
280 280 280 281 281 281 282 281 281 280 278 276 275 273 272 271 271 271 270 270 269 269 268 267 265 264 263 261 260 258 258 257 256 256 255 254 253 252 252 251 251 251 251 251 252 252 252 252 252 253 253 253 254 254 254 254 255 255 255 256 256 256 256 257 257 258 258 259 260 261 262 263 265 266 267 268 268 269 270 271 272 273 274 276 278 279
280 280 281 281 282 283 282 282 280 279 277 275 274 273 272 271 271 270 270 269 269 268 267 266 265 263 262 260 259 258 257 256 256 255 255 254 253 252 252 251 252 252 252 252 252 252 252 252 252 252 252 253 253 254 254 254 254 255 255 255 256 256 256 256 257 257 258 259 260 261 262 263 264 266 266 267 268 269 270 271 273 274 276 278 279 280
280 281 282 283 283 283 282 281 279 277 275 274 273 272 271 271 270 270 269 269 268 268 266 265 264 262 261 260 259 258 257 256 255 255 254 254 253 253 252 252 252 252 252 252 252 252 252 251 251 251 251 251 252 252 253 253 253 254 255 255 255 256 256 257 258 258 259 260 260 261 262 264 265 266 267 268 269 269 271 272 274 275 277 278 279 280
281 282 283 283 283 282 281 279 278 276 275 273 272 272 271 270 270 269 269 268 267 266 265 264 262 261 260 259 258 257 257 256 255 255 254 253 253 253 252 252 252 252 251 251 251 251 250 250 250 250 250 250 251 252 252 253 254 255 255 256 257 258 259 259 260 260 261 261 262 263 263 264 265 266 267 268 269 270 272 273 274 276 277 278 278 279
282 283 283 283 282 281 279 278 276 275 274 273 272 271 270 270 269 269 268 267 266 265 264 262 261 260 259 259 258 257 256 255 255 254 254 253 253 253 252 252 251 251 251 250 250 250 249 249 249 249 250 251 251 252 253 254 255 256 257 258 259 260 261 261 261 262 262 263 263 264 265 265 266 267 268 269 270 271 273 274 275 276 276 277 278 279
282 283 282 282 281 279 278 277 275 274 273 272 271 270 270 269 268 267 267 266 265 263 262 261 260 259 259 258 257 257 256 255 254 254 253 253 253 253 253 252 251 251 250 250 250 249 249 250 250 251 251 253 254 255 256 257 258 259 259 260 261 261 261 262 262 263 263 264 264 265 265 266 267 268 269 270 271 272 273 274 274 275 276 277 278 279
282 282 281 280 279 278 277 276 274 274 273 272 270 269 269 268 267 266 265 264 263 262 261 260 260 259 258 257 257 256 256 255 254 254 254 254 253 253 253 252 252 251 250 250 250 250 251 251 252 253 254 255 256 257 258 259 260 260 261 261 262 262 262 263 263 264 264 264 265 265 266 267 267 269 269 270 271 272 273 273 274 275 276 277 277 278
281 280 279 278 278 277 276 275 274 273 272 270 269 268 267 266 265 264 263 262 262 261 260 259 258 258 257 257 256 256 256 256 255 255 255 254 254 254 253 253 252 252 252 252 251 252 252 253 254 255 256 257 258 259 259 260 260 261 261 262 262 262 263 263 264 264 264 265 265 266 266 267 268 269 270 270 271 272 273 273 274 275 276 277 277 278
279 278 278 277 276 275 275 274 273 272 270 269 268 267 266 265 263 262 262 261 260 260 259 259 258 258 257 257 257 257 256 257 257 257 256 256 256 255 255 255 254 254 254 254 254 254 255 255 256 257 258 258 259 259 260 260 261 261 262 262 262 262 263 263 264 264 265 265 266 267 267 268 269 269 270 270 271 272 273 273 274 275 276 277 277 278
277 277 276 276 275 274 274 272 271 270 269 268 266 265 264 263 262 261 260 260 259 259 259 258 258 258 258 258 257 257 258 258 259 259 259 259 258 257 257 257 257 257 257 257 257 257 257 258 258 259 259 259 259 259 260 260 261 262 262 263 263 264 264 264 265 265 266 266 267 267 268 268 269 269 270 270 271 272 273 274 275 275 276 277 278 280
276 276 275 275 274 273 272 271 270 269 268 266 265 264 263 262 261 260 260 259 259 259 259 259 259 259 258 259 259 259 260 261 261 262 262 262 260 260 259 259 260 259 259 259 259 259 260 260 260 260 260 261 261 261 262 262 262 263 263 264 264 265 265 265 266 266 266 267 267 268 268 269 269 270 270 271 272 272 273 274 276 277 278 279 280 281
275 275 274 274 272 272 270 270 269 268 267 266 264 263 262 261 261 260 260 260 260 260 260 260 260 260 260 261 261 262 262 263 263 264 264 263 262 261 261 261 261 262 262 262 262 262 262 262 262 261 262 262 263 264 264 264 264 264 264 265 265 265 265 265 266 266 267 267 268 268 269 269 270 271 271 272 273 274 275 276 278 279 280 281 282 283
274 274 273 273 272 270 270 269 268 267 266 265 264 263 262 262 261 261 261 261 262 262 262 263 262 262 263 263 264 264 264 264 264 264 265 264 263 263 262 262 262 263 263 263 264 264 264 264 263 263 263 264 264 265 266 266 265 265 265 265 265 265 265 265 266 267 267 268 269 269 270 270 271 272 273 274 275 276 278 279 280 281 281 282 283 284
273 273 272 272 271 270 270 269 268 267 265 265 264 264 263 263 263 263 264 264 265 265 265 265 265 265 265 266 266 266 266 265 265 265 265 265 264 263 263 263 263 263 263 263 263 264 264 264 264 264 264 264 264 264 264 265 265 265 265 264 265 265 265 266 267 267 268 269 269 270 271 272 273 274 275 276 278 279 280 281 281 282 283 283 284 284
Height
10353 10352 10351 10352 10351 10349 10347 10347 10347 10345 10343 10341 10340 10340 10338 10337 10335 10334 10335 10335 10335 10334 10334 10334 10335 10335 10335 10333 10333 10331 10330 10328 10327 10327 10327 10327 10328 10328 10329 10330 10331 10332 10333 10333 10331 10329 10328 10327 10328 10328 10328 10327 10327 10327 10325 10324 10323 10323 10322 10321 10320 10320 10319 10318 10317 10315 10315 10313 10313 10312 10313 10313 10313 10312 10310 10309 10309 10309 10308 10308 10308 10307 10307 10306 10305 10304
10340 10338 10338 10338 10337 10337 10335 10334 10334 10334 10332 10330 10328 10328 10327 10325 10324 10323 10323 10323 10323 10322 10322 10323 10323 10324 10324 10324 10323 10322 10320 10319 10318 10317 10317 10317 10318 10318 10319 10320 10321 10322 10323 10323 10321 10320 10319 10319 10320 10320 10320 10319 10318 10318 10317 10316 10315 10315 10314 10313 10313 10312 10312 10311 10310 10309 10308 10307 10306 10305 10307 10306 10305 10305 10303 10302 10302 10302 10302 10302 10302 10301 10301 10300 10299 10298
10328 10327 10325 10324 10324 10324 10323 10322 10322 10322 10320 10318 10317 10316 10315 10314 10313 10312 10312 10312 10311 10310 10311 10312 10312 10313 10313 10313 10313 10312 10311 10310 10308 10308 10307 10307 10308 10308 10310 10310 10311 10312 10313 10313 10312 10311 10311 10310 10312 10313 10312 10311 10310 10310 10309 10308 10307 10307 10307 10307 10306 10305 10305 10304 10303 10302 10301 10300 10299 10299 10300 10298 10298 10297 10296 10295 10295 10295 10295 10295 10295 10295 10295 10294 10293 10293
10317 10315 10313 10312 10312 10312 10311 10310 10310 10310 10308 10307 10305 10305 10304 10303 10302 10302 10301 10301 10300 10299 10299 10300 10300 10301 10302 10302 10303 10302 10302 10300 10299 10298 10298 10298 10298 10299 10300 10300 10301 10302 10302 10303 10303 10303 10303 10302 10303 10303 10303 10303 10302 10300 10300 10300 10300 10300 10300 10300 10299 10299 10298 10297 10296 10295 10293 10292 10293 10293 10293 10292 10291 10290 10289 10289 10289 10289 10289 10289 10289 10290 10289 10288 10287 10287
10305 10303 10301 10300 10300 10300 10299 10298 10298 10298 10297 10295 10294 10293 10292 10292 10292 10291 10290 10290 10289 10288 10288 10288 10288 10289 10290 10291 10292 10292 10292 10290 10290 10289 10289 10289 10289 10289 10290 10290 10291 10292 10292 10293 10294 10295 10296 10295 10294 10293 10293 10294 10293 10292 10292 10292 10292 10292 10293 10293 10293 10292 10292 10290 10289 10288 10287 10285 10286 10286 10285 10285 10283 10283 10283 10282 10282 10282 10282 10283 10283 10284 10283 10282 10282 10281
10293 10292 10290 10289 10288 10288 10288 10287 10287 10286 10285 10283 10282 10282 10282 10281 10280 10280 10280 10279 10279 10278 10277 10277 10278 10278 10280 10280 10281 10282 10282 10281 10280 10280 10280 10280 10280 10280 10280 10281 10282 10282 10283 10283 10285 10287 10289 10288 10287 10285 10285 10285 10285 10284 10283 10284 10285 10285 10286 10286 10286 10285 10285 10283 10282 10281 10280 10279 10278 10278 10278 10277 10277 10277 10276 10276 10276 10276 10276 10277 10278 10278 10278 10277 10276 10275
10281 10281 10280 10278 10277 10277 10277 10277 10276 10275 10273 10272 10270 10270 10270 10270 10270 10270 10269 10268 10268 10268 10267 10267 10267 10268 10269 10270 10270 10271 10271 10271 10271 10270 10270 10270 10270 10270 10271 10272 10272 10273 10274 10275 10275 10277 10279 10280 10278 10277 10276 10277 10277 10276 10276 10277 10277 10278 10278 10279 10279 10278 10278 10277 10275 10275 10275 10273 10272 10270 10270 10270 10270 10270 10270 10270 10270 10270 10270 10271 10272 10272 10272 10270 10270 10270
10269 10269 10269 10268 10267 10266 10265 10266 10265 10264 10262 10260 10258 10258 10259 10259 10259 10259 10258 10258 10257 10257 10257 10257 10258 10258 10259 10260 10260 10260 10261 10261 10261 10261 10260 10260 10260 10261 10262 10263 10263 10265 10265 10266 10267 10267 10268 10269 10269 10269 10268 10268 10268 10268 10268 10269 10270 10270 10271 10272 10272 10272 10271 10271 10270 10270 10269 10267 10265 10263 10263 10263 10263 10263 10263 10264 10265 10265 10264 10264 10265 10265 10265 10265 10264 10264
10257 10257 10257 10257 10257 10255 10255 10254 10254 10253 10252 10249 10247 10247 10248 10248 10248 10248 10248 10247 10247 10248 10248 10248 10248 10248 10249 10250 10250 10250 10251 10251 10252 10252 10251 10251 10252 10252 10253 10253 10255 10256 10257 10257 10258 10258 10258 10258 10260 10261 10261 10260 10260 10260 10261 10262 10262 10263 10263 10263 10263 10263 10263 10263 10263 10263 10262 10260 10258 10257 10257 10257 10257 10256 10257 10257 10258 10258 10257 10257 10258 10259 10260 10259 10258 10258
10245 10245 10245 10245 10245 10245 10245 10243 10243 10242 10241 10238 10237 10237 10238 10238 10237 10237 10237 10237 10237 10238 10240 10240 10239 10239 10240 10241 10241 10241 10241 10241 10242 10242 10242 10242 10242 10243 10244 10245 10246 10247 10248 10249 10249 10250 10250 10250 10250 10252 10253 10253 10253 10253 10254 10255 10256 10257 10256 10255 10255 10255 10254 10255 10255 10255 10254 10253 10253 10252 10251 10250 10250 10250 10250 10250 10250 10250 10250 10250 10252 10253 10254 10253 10253 10253
10233 10233 10234 10234 10234 10234 10234 10233 10232 10231 10230 10228 10226 10225 10226 10227 10227 10227 10226 10226 10227 10228 10229 10230 10230 10230 10231 10232 10232 10232 10232 10231 10231 10232 10233 10233 10234 10235 10235 10237 10237 10238 10240 10240 10241 10242 10242 10241 10242 10243 10245 10246 10247 10247 10248 10249 10250 10250 10250 10248 10247 10247 10247 10246 10245 10245 10246 10247 10247 10247 10246 10245 10244 10243 10243 10243 10243 10243 10244 10244 10245 10247 10248 10248 10247 10247
10222 10223 10223 10223 10223 10223 10223 10222 10222 10220 10220 10218 10216 10214 10214 10215 10217 10218 10215 10215 10217 10218 10218 10219 10220 10221 10222 10222 10222 10223 10222 10222 10221 10222 10223 10224 10225 10226 10227 10228 10229 10230 10232 10232 10233 10233 10233 10232 10232 10234 10237 10239 10241 10242 10242 10242 10243 10243 10243 10242 10240 10240 10240 10240 10238 10237 10238 10239 10240 10240 10240 10240 10238 10238 10237 10236 10237 10237 10237 10237 10238 10240 10241 10242 10241 10241
10212 10212 10212 10212 10213 10213 10213 10212 10211 10210 10209 10208 10206 10205 10204 10204 10205 10206 10205 10205 10206 10208 10209 10209 10210 10211 10213 10213 10213 10213 10213 10212 10212 10213 10214 10215 10217 10217 10218 10219 10221 10222 10224 10225 10225 10225 10225 10224 10223 10225 10228 10232 10234 10235 10237 10237 10237 10236 10235 10234 10233 10233 10233 10233 10232 10231 10231 10232 10233 10233 10234 10233 10233 10232 10231 10230 10230 10230 10230 10231 10232 10233 10234 10235 10235 10235
10203 10203 10202 10203 10203 10203 10202 10202 10200 10199 10198 10198 10197 10195 10194 10194 10195 10195 10194 10194 10196 10198 10200 10200 10201 10202 10204 10204 10204 10204 10203 10203 10203 10204 10205 10207 10208 10209 10210 10211 10213 10215 10217 10218 10218 10218 10217 10216 10215 10215 10218 10223 10227 10228 10230 10230 10230 10229 10228 10227 10226 10225 10225 10226 10225 10225 10225 10225 10227 10227 10228 10228 10227 10227 10226 10225 10225 10225 10225 10225 10225 10226 10227 10228 10228 10228
10193 10193 10193 10193 10193 10193 10192 10191 10190 10189 10188 10187 10186 10185 10184 10184 10184 10184 10184 10185 10186 10188 10190 10190 10192 10193 10195 10196 10195 10195 10194 10194 10195 10196 10197 10198 10200 10201 10202 10203 10205 10207 10209 10210 10210 10210 10210 10208 10207 10206 10208 10213 10217 10221 10222 10223 10222 10222 10221 10220 10219 10218 10218 10218 10218 10218 10218 10219 10220 10220 10221 10221 10221 10221 10221 10221 10221 10221 10220 10219 10219 10220 10221 10222 10222 10223
10185 10185 10184 10184 10184 10183 10182 10181 10180 10178 10178 10177 10177 10175 10174 10174 10175 10175 10176 10175 10177 10178 10180 10182 10183 10185 10187 10188 10187 10187 10185 10185 10187 10188 10189 10191 10192 10193 10194 10195 10197 10198 10201 10203 10203 10203 10203 10202 10200 10198 10199 10203 10208 10213 10215 10215 10215 10214 10214 10213 10213 10213 10212 10212 10212 10212 10212 10213 10213 10213 10214 10215 10215 10215 10215 10215 10215 10215 10215 10214 10214 10214 10215 10215 10216 10217
10177 10177 10176 10175 10175 10174 10173 10172 10170 10168 10168 10167 10167 10166 10165 10165 10166 10167 10167 10167 10168 10170 10171 10173 10174 10176 10178 10179 10179 10178 10177 10177 10178 10180 10182 10183 10185 10185 10186 10187 10188 10190 10193 10195 10196 10196 10195 10195 10193 10192 10192 10194 10199 10204 10208 10208 10207 10207 10207 10207 10207 10206 10205 10205 10205 10206 10207 10207 10207 10207 10207 10208 10208 10209 10210 10210 10210 10210 10210 10209 10209 10209 10209 10210 10210 10210
10169 10168 10168 10167 10166 10165 10164 10163 10161 10159 10158 10158 10157 10157 10157 10157 10157 10158 10158 10158 10159 10160 10162 10163 10166 10168 10170 10171 10171 10170 10170 10170 10170 10172 10174 10175 10177 10178 10178 10178 10180 10183 10185 10187 10188 10188 10188 10187 10187 10185 10185 10187 10191 10196 10200 10201 10200 10200 10200 10200 10200 10199 10199 10199 10200 10200 10201 10201 10201 10202 10202 10202 10202 10203 10203 10203 10204 10204 10203 10203 10203 10204 10204 10205 10205 10205
10162 10161 10160 10158 10157 10157 10155 10154 10152 10150 10149 10149 10149 10149 10149 10149 10149 10150 10149 10150 10152 10152 10153 10155 10157 10160 10162 10163 10163 10163 10163 10162 10162 10164 10166 10167 10168 10170 10170 10171 10173 10175 10178 10180 10180 10181 10181 10180 10180 10179 10179 10180 10184 10190 10193 10194 10193 10193 10193 10193 10193 10193 10193 10193 10193 10194 10195 10195 10195 10195 10195 10196 10196 10197 10197 10197 10198 10198 10198 10198 10198 10198 10199 10199 10200 10200
10155 10153 10152 10150 10148 10147 10147 10145 10144 10142 10141 10141 10141 10142 10142 10142 10142 10142 10142 10143 10144 10145 10146 10148 10150 10152 10154 10155 10155 10155 10155 10155 10155 10156 10158 10159 10161 10162 10163 10164 10165 10167 10170 10172 10173 10173 10173 10173 10173 10172 10173 10175 10178 10182 10187 10187 10187 10185 10185 10186 10186 10186 10187 10187 10187 10188 10188 10188 10189 10189 10190 10190 10190 10191 10191 10192 10192 10192 10192 10192 10192 10192 10193 10194 10195 10195
10148 10146 10145 10142 10140 10138 10138 10137 10137 10135 10133 10133 10134 10135 10135 10135 10135 10135 10135 10136 10137 10137 10139 10140 10142 10143 10146 10147 10147 10147 10147 10147 10147 10148 10150 10152 10153 10155 10156 10157 10158 10160 10162 10164 10165 10166 10166 10166 10165 10166 10167 10169 10172 10176 10180 10180 10179 10178 10178 10178 10179 10180 10180 10180 10181 10182 10182 10182 10183 10183 10184 10185 10185 10185 10186 10186 10187 10187 10187 10187 10187 10187 10188 10188 10189 10190
10141 10139 10137 10135 10133 10131 10130 10130 10129 10128 10127 10127 10127 10128 10128 10128 10128 10128 10128 10129 10130 10130 10132 10133 10134 10136 10138 10138 10139 10139 10140 10140 10140 10140 10143 10145 10146 10147 10150 10150 10151 10153 10155 10157 10158 10158 10158 10158 10158 10159 10160 10163 10165 10169 10172 10172 10171 10170 10170 10172 10172 10173 10173 10174 10175 10175 10176 10177 10177 10178 10178 10179 10180 10180 10180 10181 10181 10181 10182 10182 10182 10182 10183 10183 10184 10184
10133 10132 10130 10128 10126 10125 10124 10123 10122 10122 10121 10120 10120 10120 10122 10122 10122 10122 10122 10123 10123 10123 10125 10126 10127 10128 10130 10130 10131 10132 10132 10132 10132 10133 10136 10137 10138 10140 10143 10143 10144 10146 10147 10149 10150 10151 10151 10151 10151 10152 10154 10157 10160 10163 10165 10165 10163 10163 10163 10165 10165 10166 10167 10167 10168 10169 10170 10171 10172 10172 10173 10173 10175 10175 10175 10175 10176 10176 10176 10177 10177 10177 10178 10178 10178 10179
10123 10123 10123 10122 10120 10119 10118 10118 10117 10116 10115 10114 10114 10114 10114 10115 10115 10116 10117 10117 10117 10117 10118 10119 10120 10122 10123 10124 10124 10124 10125 10125 10125 10127 10128 10130 10133 10135 10136 10137 10138 10138 10140 10142 10143 10144 10143 10144 10145 10146 10148 10151 10153 10156 10157 10157 10156 10156 10157 10158 10158 10160 10160 10162 10163 10163 10165 10165 10166 10167 10168 10168 10169 10170 10170 10170 10170 10170 10171 10171 10172 10172 10173 10173 10173 10173
10114 10115 10115 10115 10115 10114 10113 10112 10112 10110 10109 10108 10108 10108 10108 10108 10109 10110 10110 10111 10111 10111 10112 10113 10114 10115 10116 10117 10117 10117 10117 10118 10118 10119 10122 10124 10127 10128 10130 10130 10131 10132 10133 10135 10136 10137 10137 10137 10139 10141 10143 10145 10148 10149 10150 10149 10149 10150 10151 10152 10153 10153 10155 10156 10157 10158 10159 10160 10161 10162 10162 10163 10163 10164 10165 10165 10165 10165 10166 10166 10167 10167 10168 10168 10168 10168
10106 10107 10108 10108 10108 10108 10107 10107 10106 10105 10104 10103 10103 10103 10103 10103 10103 10104 10104 10104 10104 10105 10105 10107 10108 10109 10110 10111 10110 10110 10111 10111 10112 10113 10115 10118 10120 10122 10123 10124 10124 10125 10127 10128 10129 10130 10131 10132 10133 10135 10138 10140 10142 10143 10143 10142 10143 10143 10145 10146 10147 10148 10150 10151 10152 10153 10154 10155 10155 10157 10157 10158 10158 10159 10160 10160 10160 10160 10161 10161 10162 10162 10163 10163 10163 10163
10098 10099 10100 10101 10101 10101 10100 10100 10099 10099 10098 10098 10098 10098 10098 10098 10098 10098 10098 10098 10098 10099 10100 10102 10103 10103 10104 10104 10104 10104 10105 10105 10106 10107 10109 10112 10114 10116 10117 10117 10118 10118 10120 10121 10122 10124 10127 10127 10128 10130 10133 10134 10135 10136 10136 10136 10137 10138 10140 10140 10142 10143 10145 10146 10147 10148 10149 10150 10150 10152 10152 10153 10153 10154 10155 10155 10155 10155 10156 10157 10157 10157 10158 10158 10158 10158
10092 10092 10093 10093 10094 10094 10094 10094 10093 10093 10093 10092 10092 10092 10093 10093 10093 10093 10093 10093 10093 10094 10095 10096 10097 10098 10098 10098 10098 10098 10099 10099 10100 10100 10103 10106 10108 10109 10110 10110 10112 10113 10114 10115 10117 10120 10122 10123 10124 10125 10127 10128 10129 10130 10130 10131 10132 10133 10134 10135 10137 10138 10140 10141 10142 10143 10144 10145 10146 10147 10147 10148 10148 10149 10150 10150 10150 10151 10152 10152 10152 10152 10153 10153 10153 10153
10085 10086 10087 10087 10088 10088 10088 10088 10088 10087 10087 10087 10087 10087 10088 10089 10089 10088 10088 10088 10088 10088 10088 10090 10092 10092 10093 10093 10093 10093 10093 10093 10093 10095 10097 10100 10102 10103 10104 10105 10105 10107 10110 10112 10113 10114 10116 10117 10118 10120 10121 10122 10123 10123 10124 10126 10127 10128 10130 10131 10132 10133 10135 10136 10137 10138 10139 10140 10141 10142 10142 10143 10143 10144 10145 10145 10146 10146 10147 10147 10147 10147 10147 10148 10148 10148
10079 10080 10080 10081 10082 10082 10082 10082 10082 10082 10081 10081 10082 10082 10083 10083 10083 10083 10083 10082 10083 10083 10083 10085 10086 10087 10088 10088 10088 10087 10087 10087 10088 10090 10092 10094 10095 10097 10098 10100 10100 10102 10107 10108 10109 10110 10110 10112 10113 10114 10115 10115 10117 10118 10119 10120 10122 10123 10125 10126 10128 10129 10130 10132 10132 10133 10135 10135 10136 10137 10138 10138 10139 10140 10140 10140 10141 10142 10142 10142 10142 10142 10142 10142 10143 10143
10073 10074 10075 10075 10076 10077 10077 10077 10077 10076 10076 10076 10076 10077 10077 10077 10078 10078 10078 10078 10078 10078 10079 10080 10081 10082 10082 10083 10083 10083 10082 10082 10083 10085 10087 10089 10090 10091 10093 10095 10097 10098 10102 10104 10105 10105 10104 10105 10107 10108 10109 10110 10111 10112 10114 10115 10117 10118 10120 10122 10123 10124 10125 10127 10128 10128 10130 10130 10131 10132 10133 10133 10134 10135 10135 10136 10136 10137 10137 10137 10137 10137 10137 10137 10138 10138
10068 10068 10070 10070 10071 10071 10071 10071 10071 10071 10070 10070 10070 10071 10072 10072 10073 10073 10073 10073 10074 10074 10075 10075 10076 10077 10077 10078 10079 10078 10077 10078 10078 10080 10082 10084 10085 10086 10089 10092 10093 10094 10096 10098 10099 10099 10099 10100 10101 10102 10103 10105 10106 10107 10109 10111 10112 10114 10116 10117 10118 10119 10120 10122 10123 10124 10125 10125 10127 10127 10128 10128 10129 10130 10130 10131 10131 10132 10132 10132 10132 10133 10133 10133 10133 10133
10063 10063 10064 10065 10065 10066 10066 10066 10066 10066 10066 10066 10066 10066 10067 10067 10068 10068 10068 10068 10069 10070 10070 10071 10071 10072 10073 10073 10074 10074 10073 10073 10075 10076 10078 10080 10081 10082 10085 10087 10089 10090 10091 10092 10093 10093 10095 10095 10096 10097 10099 10100 10102 10103 10105 10106 10108 10110 10112 10113 10114 10115 10116 10117 10118 10119 10120 10120 10122 10122 10123 10123 10124 10125 10125 10126 10127 10127 10127 10128 10128 10128 10129 10129 10129 10128
10058 10058 10059 10060 10060 10061 10061 10062 10062 10062 10062 10062 10062 10062 10062 10062 10062 10063 10063 10064 10065 10065 10066 10067 10067 10068 10068 10069 10070 10070 10069 10070 10070 10072 10074 10076 10077 10078 10081 10083 10084 10085 10086 10086 10087 10088 10089 10090 10092 10093 10094 10095 10097 10099 10100 10102 10103 10105 10107 10108 10110 10110 10111 10112 10113 10114 10115 10116 10117 10117 10118 10118 10120 10120 10121 10122 10122 10123 10123 10123 10124 10125 10125 10125 10124 10123
10054 10054 10055 10055 10055 10056 10056 10057 10057 10058 10058 10058 10057 10057 10057 10057 10057 10058 10058 10059 10060 10061 10062 10063 10063 10064 10065 10065 10065 10065 10065 10066 10067 10068 10070 10072 10073 10075 10077 10078 10079 10080 10081 10081 10082 10083 10085 10086 10087 10089 10090 10092 10093 10095 10096 10098 10100 10101 10102 10104 10105 10106 10107 10108 10108 10110 10110 10111 10112 10112 10113 10114 10115 10115 10116 10117 10118 10118 10119 10120 10120 10120 10120 10120 10119 10118
10050 10050 10050 10050 10051 10052 10052 10052 10053 10053 10053 10053 10053 10053 10053 10053 10053 10053 10054 10055 10056 10057 10058 10058 10060 10060 10061 10062 10062 10062 10062 10062 10063 10064 10066 10068 10070 10072 10073 10073 10074 10075 10076 10077 10078 10079 10081 10082 10083 10085 10087 10088 10090 10091 10092 10094 10096 10097 10098 10099 10100 10102 10102 10103 10104 10105 10106 10107 10107 10108 10108 10109 10110 10111 10112 10113 10113 10114 10115 10115 10115 10115 10115 10114 10113 10113
10046 10046 10046 10047 10047 10047 10048 10048 10049 10050 10050 10049 10049 10049 10048 10048 10049 10049 10050 10051 10052 10053 10054 10055 10056 10057 10057 10058 10058 10058 10058 10058 10060 10061 10062 10064 10066 10068 10068 10068 10070 10071 10072 10073 10074 10076 10078 10079 10080 10082 10083 10085 10086 10087 10089 10090 10092 10093 10094 10095 10096 10097 10098 10099 10100 10101 10102 10102 10102 10103 10104 10105 10105 10107 10107 10108 10109 10110 10110 10110 10110 10110 10109 10108 10108 10107
10042 10042 10042 10043 10043 10044 10044 10045 10045 10045 10045 10045 10045 10045 10045 10045 10045 10045 10047 10047 10048 10050 10050 10052 10052 10053 10053 10054 10054 10055 10055 10055 10056 10058 10059 10061 10062 10063 10064 10065 10066 10067 10069 10071 10072 10073 10075 10077 10078 10078 10080 10081 10083 10084 10085 10087 10088 10089 10090 10090 10092 10093 10094 10095 10095 10097 10097 10097 10098 10098 10100 10100 10102 10102 10103 10103 10104 10105 10105 10105 10104 10104 10103 10103 10102 10101
10038 10038 10038 10039 10040 10040 10041 10041 10041 10041 10041 10041 10041 10041 10041 10041 10042 10042 10043 10044 10045 10046 10047 10048 10048 10049 10050 10050 10050 10051 10052 10052 10053 10055 10057 10058 10059 10060 10062 10063 10063 10065 10067 10068 10070 10071 10072 10073 10075 10076 10077 10078 10079 10080 10082 10083 10084 10085 10085 10087 10088 10089 10090 10090 10092 10092 10093 10093 10094 10095 10095 10097 10097 10098 10098 10099 10100 10100 10100 10099 10099 10098 10098 10097 10096 10095
10035 10035 10035 10037 10037 10037 10038 10037 10037 10037 10037 10037 10037 10037 10037 10038 10038 10039 10040 10040 10042 10042 10043 10044 10045 10045 10046 10047 10047 10048 10048 10049 10050 10052 10053 10055 10056 10057 10059 10060 10061 10062 10064 10065 10067 10068 10069 10070 10071 10072 10073 10075 10075 10077 10078 10079 10080 10080 10082 10083 10084 10084 10085 10086 10087 10088 10088 10089 10090 10091 10092 10092 10093 10094 10094 10095 10095 10095 10095 10094 10093 10093 10093 10092 10091 10089
10032 10032 10033 10033 10033 10034 10034 10033 10033 10033 10033 10033 10033 10033 10034 10035 10035 10035 10037 10037 10038 10039 10040 10040 10041 10042 10042 10043 10044 10045 10045 10047 10048 10049 10050 10052 10053 10054 10056 10057 10058 10060 10061 10062 10063 10064 10065 10067 10067 10068 10070 10071 10072 10073 10074 10075 10076 10077 10078 10079 10079 10080 10081 10082 10083 10084 10085 10085 10086 10087 10088 10088 10089 10090 10090 10090 10090 10090 10090 10090 10089 10088 10087 10087 10085 10084
10029 10030 10030 10030 10030 10030 10030 10030 10030 10030 10030 10030 10030 10030 10031 10032 10032 10033 10033 10034 10035 10035 10036 10037 10038 10038 10039 10040 10041 10042 10043 10044 10045 10047 10048 10049 10050 10052 10053 10054 10055 10057 10058 10059 10060 10061 10062 10063 10064 10065 10066 10067 10068 10070 10070 10071 10072 10073 10074 10075 10075 10077 10078 10078 10079 10080 10081 10082 10082 10083 10084 10085 10085 10085 10085 10085 10085 10085 10085 10085 10084 10083 10082 10081 10080 10079
10027 10027 10027 10027 10027 10027 10027 10027 10027 10027 10027 10027 10027 10027 10028 10028 10029 10030 10030 10031 10032 10032 10033 10034 10035 10035 10037 10037 10038 10039 10040 10042 10043 10044 10045 10046 10047 10048 10050 10051 10052 10053 10055 10056 10057 10057 10058 10060 10061 10062 10063 10064 10065 10066 10067 10067 10068 10070 10070 10071 10072 10073 10074 10074 10075 10077 10078 10078 10078 10080 10080 10080 10080 10080 10081 10080 10080 10080 10080 10079 10078 10078 10077 10075 10075 10073
10023 10023 10023 10023 10023 10023 10023 10023 10023 10023 10023 10023 10024 10024 10025 10025 10026 10027 10027 10028 10028 10029 10030 10030 10032 10033 10033 10034 10035 10037 10038 10039 10040 10042 10042 10043 10045 10046 10047 10048 10050 10050 10052 10053 10053 10055 10056 10057 10058 10058 10060 10061 10062 10063 10063 10064 10065 10066 10067 10067 10068 10070 10070 10070 10072 10073 10074 10074 10075 10075 10075 10076 10076 10076 10076 10075 10075 10075 10074 10073 10073 10072 10071 10070 10069 10068
10020 10020 10020 10020 10020 10020 10020 10020 10020 10020 10020 10021 10021 10022 10022 10022 10023 10023 10024 10025 10025 10026 10027 10028 10029 10030 10031 10032 10033 10034 10035 10037 10037 10038 10040 10041 10042 10043 10045 10045 10047 10048 10048 10050 10050 10052 10053 10053 10054 10055 10056 10057 10058 10059 10060 10060 10062 10062 10063 10064 10065 10065 10066 10067 10068 10069 10070 10070 10070 10070 10071 10071 10071 10071 10070 10070 10070 10069 10068 10068 10067 10067 10065 10065 10063 10062
10017 10017 10017 10017 10017 10017 10017 10017 10017 10017 10018 10018 10018 10018 10019 10020 10020 10020 10021 10022 10023 10023 10024 10025 10027 10027 10028 10029 10030 10032 10033 10034 10035 10036 10037 10038 10040 10040 10042 10042 10043 10045 10045 10047 10047 10048 10049 10050 10051 10052 10053 10054 10055 10055 10056 10057 10058 10058 10060 10060 10062 10062 10063 10063 10064 10065 10065 10065 10065 10065 10066 10066 10066 10065 10065 10064 10063 10063 10063 10062 10062 10061 10060 10058 10058 10057
10014 10014 10014 10014 10014 10014 10014 10014 10015 10015 10015 10015 10016 10016 10017 10017 10017 10018 10018 10019 10020 10021 10022 10023 10024 10025 10026 10027 10028 10030 10030 10032 10032 10033 10035 10035 10037 10037 10038 10039 10040 10041 10042 10043 10044 10045 10045 10047 10047 10048 10050 10050 10051 10052 10053 10053 10055 10055 10056 10057 10058 10058 10059 10060 10060 10060 10060 10061 10060 10060 10060 10060 10060 10060 10059 10058 10058 10057 10057 10057 10056 10055 10054 10053 10052 10050
10011 10011 10011 10011 10011 10012 10012 10012 10012 10012 10013 10013 10013 10013 10014 10015 10015 10015 10016 10017 10018 10018 10020 10020 10022 10023 10023 10025 10026 10027 10028 10029 10030 10031 10032 10033 10033 10035 10035 10036 10037 10038 10038 10040 10040 10042 10042 10043 10044 10045 10046 10047 10048 10048 10050 10050 10052 10052 10053 10053 10054 10055 10055 10055 10055 10055 10056 10055 10055 10055 10055 10055 10055 10054 10053 10053 10052 10052 10051 10050 10050 10049 10048 10047 10046 10044
10008 10008 10008 10008 10008 10009 10009 10009 10010 10010 10010 10011 10011 10012 10012 10012 10013 10013 10014 10015 10015 10017 10017 10018 10020 10020 10022 10023 10023 10025 10026 10027 10027 10028 10029 10030 10031 10032 10033 10033 10034 10035 10036 10037 10037 10038 10039 10040 10041 10042 10043 10044 10045 10045 10046 10047 10048 10048 10049 10050 10050 10050 10050 10050 10050 10050 10050 10050 10050 10050 10050 10049 10048 10048 10048 10047 10046 10045 10045 10045 10044 10043 10043 10042 10040 10038
10005 10005 10006 10006 10006 10007 10007 10007 10008 10008 10008 10008 10009 10009 10010 10010 10011 10012 10012 10013 10014 10015 10015 10017 10018 10018 10020 10020 10022 10022 10023 10024 10025 10025 10026 10027 10028 10029 10030 10031 10032 10032 10033 10034 10035 10035 10037 10037 10038 10039 10040 10041 10042 10042 10043 10043 10044 10045 10045 10045 10045 10045 10045 10045 10045 10045 10045 10045 10044 10044 10044 10043 10043 10043 10042 10042 10040 10040 10039 10038 10038 10037 10037 10035 10034 10032
10003 10003 10003 10003 10004 10004 10005 10005 10005 10006 10007 10007 10007 10008 10008 10008 10009 10010 10010 10012 10012 10013 10014 10015 10016 10017 10017 10018 10019 10020 10021 10022 10022 10023 10024 10025 10026 10027 10027 10028 10029 10030 10031 10032 10032 10033 10034 10035 10036 10037 10037 10038 10039 10040 10040 10040 10040 10040 10040 10040 10040 10040 10040 10040 10040 10040 10040 10039 10039 10038 10038 10038 10037 10037 10037 10036 10035 10034 10033 10033 10032 10031 10030 10029 10028 10026